Home   Weather   Piešťany   Past weeks

Flag for Slovakia Past Weather in Piešťany, Slovakia — Yesterday and Last 2 Weeks

Now
70 °F

Sunny.


Feels Like: 70 °F
Forecast: 51 / 66 °F
Wind: 8 mph from South

Location: Piestany

Current Time: Apr 25, 2017 at 6:33:29 pm

Latest Report: Apr 25, 2017 at 6:00 pm


Visibility: 10 mi

Pressure: 29.68 "Hg

Humidity: 40%

Dew Point: 45 °F

Location of PiešťanyLocation

Past Weather in Piešťany — Graph

°F

Piešťany Temperature Yesterday

Maximum temperature yesterday: 57 °F (at 5:00 pm)
Minimum temperature yesterday: 34 °F (at 2:00 am)
Average temperature yesterday: 46 °F

High & Low Weather Summary for the Past Weeks

 TemperatureHumidityPressure
High70 °F (Apr 25, 3:30 pm)100% (Apr 15, 3:30 am)30.42 "Hg (Apr 15, 3:30 am)
Low27 °F (Apr 17, 5:00 am)33% (Apr 16, 4:00 pm)29.68 "Hg (Apr 25, 5:00 pm)
Average46 °F66%30.02 "Hg
* Reported Apr 10 5:00 pm — Apr 25 5:30 pm, Piešťany, Weather by CustomWeather, © 2017

Note: Actual official high and low records may vary slightly from our data, if they occured in-between our weather recording intervals... More about our weather records

Advertising

Piešťany Weather History for the Previous 24 Hours

Scroll right to see more
 ConditionsComfort  
Time TempWeatherWind HumidityBarometerVisibility
5:30 pm
Tue, Apr 25
70 °FSunny.8 mph40%29.68 "Hg10 mi
5:00 pm70 °FSunny.8 mph38%29.68 "Hg10 mi
4:00 pm70 °FPassing clouds.7 mph40%29.71 "HgN/A
3:30 pm70 °FPassing clouds.9 mph40%29.71 "HgN/A
3:00 pm68 °FSunny.12 mph43%29.74 "Hg10 mi
2:30 pm68 °FPassing clouds.9 mph43%29.74 "HgN/A
2:00 pm66 °FSunny.17 mph49%29.77 "Hg10 mi
1:30 pm66 °FPassing clouds.17 mph49%29.77 "HgN/A
1:00 pm64 °FPassing clouds.16 mph52%29.77 "HgN/A
12:30 pm63 °FPassing clouds.16 mph52%29.80 "HgN/A
12:00 pm61 °FPassing clouds.14 mph55%29.80 "HgN/A
11:30 am59 °FPassing clouds.15 mph55%29.80 "HgN/A
11:00 am57 °FPartly sunny.14 mph59%29.80 "HgN/A
10:30 am57 °FScattered clouds.13 mph59%29.83 "HgN/A
10:00 am55 °FScattered clouds.14 mph63%29.83 "HgN/A
9:30 am55 °FPartly sunny.13 mph59%29.83 "HgN/A
9:00 am54 °FPartly sunny.15 mph63%29.83 "HgN/A
8:30 am52 °FPartly sunny.14 mph62%29.83 "HgN/A
8:00 am50 °FPartly sunny.14 mph67%29.83 "HgN/A
7:30 am50 °FPartly sunny.14 mph62%29.86 "HgN/A
7:00 am48 °FPartly sunny.14 mph66%29.86 "HgN/A
6:30 am48 °FPartly sunny.14 mph66%29.83 "HgN/A
6:00 am48 °FPartly sunny.14 mph66%29.83 "HgN/A
5:30 am48 °FOvercast.13 mph62%29.83 "HgN/A
5:00 am48 °FOvercast.12 mph62%29.83 "HgN/A
4:30 am48 °FOvercast.12 mph62%29.86 "HgN/A
4:00 am48 °FOvercast.12 mph62%29.86 "HgN/A
3:00 am50 °FOvercast.13 mph58%29.86 "HgN/A
2:30 am50 °FPassing clouds.13 mph58%29.86 "HgN/A
2:00 am50 °FOvercast.12 mph58%29.86 "HgN/A
1:30 am50 °FCool.15 mph58%29.89 "HgN/A
1:00 am50 °FCool.9 mph58%29.89 "HgN/A
12:30 am50 °FCool.9 mph54%29.89 "HgN/A
12:00 am52 °FPassing clouds.18 mph50%29.92 "HgN/A
11:30 pm
Mon, Apr 24
50 °FCool.16 mph54%29.92 "HgN/A
11:00 pm52 °FPassing clouds.15 mph50%29.92 "HgN/A
10:30 pm52 °FCool.12 mph47%29.95 "HgN/A
10:00 pm52 °FClear.13 mph47%29.95 "Hg10 mi
9:30 pm52 °FPassing clouds.9 mph47%29.95 "HgN/A
9:00 pm50 °FPassing clouds.7 mph50%29.98 "HgN/A
8:30 pm50 °FClear.7 mph54%29.98 "Hg10 mi
8:00 pm52 °FClear.6 mph50%29.98 "Hg10 mi
7:30 pm54 °FSunny.7 mph44%29.98 "Hg10 mi
7:00 pm55 °FSunny.8 mph41%29.98 "Hg10 mi
6:30 pm55 °FSunny.8 mph41%29.98 "Hg10 mi
6:00 pm55 °FPassing clouds.7 mph41%30.01 "HgN/A
Weather by CustomWeather, © 2017

See weather overviewHow to use our weather pages